Location: ????????
(60.4333°N, 46.4710°E)
Time: 03:27:36
(UTC+00:00)

H-2A R/B - Pass Details

Date: 25 November 2020
Orbit: 529 x 651 km, 98.3° (Epoch: 19 January)

Event Time Altitude Azimuth Distance (km) Brightness Sun altitude
Rises 13:43:22 0° 168° (SSE) 2,890 6.1 -11.3°
Reaches altitude 10° 13:45:36 10° 170° (S) 1,970 5.3 -11.5°
Maximum altitude 13:49:52 69° 255° (WSW) 645 2.9 -12.0°
Drops below altitude 10° 13:54:00 10° 339° (NNW) 1,909 5.1 -12.5°
Sets 13:56:08 0° 342° (NNW) 2,792 5.9 -12.7°
